Tracking 30995 objects as of 5-Jul-2025
HD Live streaming from Space Station
objects crossing your sky now

FENGYUN 1C DEB

Track FENGYUN 1C DEB now!
10-day predictions


NORAD ID: 32342
Int'l Code: 1999-025CYK
Perigee: 848.7 km
Apogee: 861.6 km
Inclination: 98.7 °
Period: 101.9 minutes
Semi major axis: 7226 km
RCS: 0.023 m2 (small)
Launch date: May 10, 1999
Source: People's Republic of China (PRC)
Launch site: Taiyaun Space Center, China (TSC)

Note: This is SATELLITE DEBRIS
Your satellite tracking list
Your tracking list is empty




NASA's NSSDC Master Catalog

Two Line Element Set (TLE):
1 32342U 99025CYK 25186.28676137  .00000091  00000-0  71382-4 0  9996
2 32342  98.6729 199.7795 0008967  82.5978 342.6180 14.13321905914516
Source of the keplerian elements: AFSPC